Regional Weather Roundup
Issued by NWS

Home | Current Version | Previous Version | Graphics & Text | Print | Product List | Glossary Off
Versions: 1 2 3 4 5 6 7 8 9 10 11 12 13 14 15 16 17 18 19 20 21 22 23 24 25 26 27 28 29 30 31 32 33 34 35 36 37 38 39 40 41 42 43 44 45 46 47 48 49 50

369
ASUS43 KMKX 252221
RWRWI

WISCONSIN REGIONAL WEATHER ROUNDUP
NATIONAL WEATHER SERVICE MILWAUKEE/SULLIVAN WI
500 PM CDT TUE JUL 25 2017

NOTE: "FAIR" INDICATES FEW OR NO CLOUDS BELOW 12,000 FEET WITH NO
SIGNIFICANT WEATHER AND/OR OBSTRUCTIONS TO VISIBILITY.

WIZ001-002-006>008-014>016-023>028-252300-
NORTHWEST WISCONSIN

CITY           SKY/WX    TMP DP  RH WIND       PRES   REMARKS
SUPERIOR ARPT  NOT AVBL
ASHLAND        CLOUDY    77  65  66 S14       29.97F
HAYWARD        CLOUDY    73  64  73 S8        30.00F
SIREN          CLOUDY    74  65  71 S7        29.98S
CUMBERLAND     CLOUDY    72  64  78 SE8       30.00S
RICE LAKE      CLOUDY    76  64  66 SE15      30.01F
CHETEK         PTSUNNY   77  67  71 SE13G18   30.01F
LADYSMITH      CLOUDY    73  64  72 S7        30.05S
EAU CLAIRE     MOSUNNY   75  67  76 SE10      30.00F
MENOMONIE      CLOUDY    78  67  68 SE9G17    30.00F HX  80
NEW RICHMOND   CLOUDY    79  67  67 S10G16    29.98S HX  81
OSCEOLA        CLOUDY    79  67  66 S10       29.99S HX  82
$$

WIZ003>005-009-010-017-018-252300-
NORTH CENTRAL WISCONSIN

CITY           SKY/WX    TMP DP  RH WIND       PRES   REMARKS
MANITOWISH WTR PTSUNNY   70  59  67 S15G21    30.05F
ARBOR VITAE    CLOUDY    72  62  70 S9G17     30.06F
WOODRUFF       CLOUDY    72  62  70 S9G17     30.06F
RHINELANDER    PTSUNNY   74  58  57 S12       30.09F
EAGLE RIVER    PTSUNNY   72  54  52 S12G17    30.07F
LAND O LAKES   PTSUNNY   73  53  50 S10G21    30.07F
PHILLIPS       CLOUDY    67  64  90 SE6       30.05S
TOMAHAWK       LGT RAIN  67  62  84 E3        30.09S
MEDFORD        PTSUNNY   71  61  70 S16       30.07F
MERRILL        LGT RAIN  66  64  94 E5        30.08F
$$

WIZ029-030-035-036-043>047-252300-
CENTRAL WISCONSIN

CITY           SKY/WX    TMP DP  RH WIND       PRES   REMARKS
WAUSAU         CLOUDY    73  60  63 S12       30.07S
MOSINEE        PTSUNNY   70  64  83 SE9       30.09F
MARSHFIELD     MOSUNNY   75  60  59 S10       30.06F
STEVENS POINT  MOSUNNY   74  59  59 S13G18    30.10F
WAUPACA        PTSUNNY   78  60  53 S10G17    30.10F HX  80
WAUTOMA        MOSUNNY   77  63  61 S10       30.11S
WISC RAPIDS    MOSUNNY   79  62  56 S8        30.09F HX  80
CAMP DOUGLAS   PTSUNNY   77  66  69 S13       30.07F
$$

WIZ011>013-019>022-031-037>040-048>050-252300-
NORTHEAST WISCONSIN

CITY           SKY/WX    TMP DP  RH WIND       PRES   REMARKS
ANTIGO         CLOUDY    70  60  69 S7        30.12R
SHAWANO        MOSUNNY   75  61  61 S3        30.09S
OCONTO         PTSUNNY   75  65  69 S13       30.09F
STURGEON BAY     N/A     72  60  66 S18G24    30.11F
GREEN BAY      MOSUNNY   77  63  61 S13G18    30.09F
MANITOWOC      MOSUNNY   73  60  63 S22G29    30.13F
APPLETON       PTSUNNY   77  57  50 S17       30.10F
CLINTONVILLE   CLOUDY   N/A N/A N/A S13       30.08F
OSHKOSH        PTSUNNY   77  62  59 S12       30.10F
$$

WIZ032>034-041-042-053>061-252300-
SOUTHWEST WISCONSIN

CITY           SKY/WX    TMP DP  RH WIND       PRES   REMARKS
LA CROSSE      MOSUNNY   81  66  60 S14       30.02F HX  83
SPARTA         PTSUNNY   75  65  72 S7        30.06F
VIROQUA        MOSUNNY   77  67  71 S13       30.07F
BOSCOBEL       CLOUDY    81  66  60 VRB6      30.07F HX  83
PRAIRIE DU CHI SUNNY     80  64  58 SE9G18    30.05F HX  82
PLATTEVILLE    SUNNY     78  68  69 S12       30.11S HX  80
$$

WIZ056-057-062-063-064-067-068-252300-
SOUTH CENTRAL WISCONSIN

CITY           SKY/WX    TMP DP  RH WIND       PRES   REMARKS
REEDSBURG      CLOUDY    75  65  71 S10G17    30.09S
BARABOO/DELLS  CLOUDY    77  60  56 S14       30.10S
LONE ROCK      MOSUNNY   78  67  68 S10       30.08F HX  80
MINERAL POINT  SUNNY     79  68  69 S16       30.11S HX  81
MADISON        CLOUDY    77  61  57 S15G28    30.10F
MIDDLETON      CLOUDY    77  63  63 S13G21    30.11F
WATERTOWN      CLOUDY    77  65  65 S13       30.11F
MONROE         CLOUDY    77  63  61 S15       30.12F
JANESVILLE     PTSUNNY   79  63  57 S12G17    30.12F HX  80
$$

WIZ051-052-058>065-066-070>072-252300-
SOUTHEAST WISCONSIN

CITY           SKY/WX    TMP DP  RH WIND       PRES   REMARKS
MILWAUKEE      CLOUDY    74  62  66 S12       30.13F
WAUKESHA       MOSUNNY   73  59  60 SE12      30.15S
MILWAUKEE/TIMM SUNNY     75  57  53 SE8       30.14F
RACINE         CLOUDY    74  62  66 SE13      30.15F
KENOSHA        CLOUDY    74  59  59 SE15G24   30.14F
FOND DU LAC    CLOUDY    78  59  51 S17       30.11F
SHEBOYGAN      MOSUNNY   73  61  65 S18G28    30.13F
WEST BEND      PTSUNNY   72  59  64 SE7       30.13F
JUNEAU         CLOUDY    76  62  60 S12       30.12F
$$

LSZ147-162-252300-
LAKE SUPERIOR

STATION/POSITION TIME  TEMP    WIND        PRES    WAVE
                       AIR SEA DIR/SP/G            HT/PER
                 (UTC) (F)     (DEG/KT/KT) (MB)    (FT/S)
W MID LAKE BUOY  2150   61 53  150/  6/  6 1015.0F   0
DEVILS ISLAND    2200   75     180/  9/ 11 1014.0F
PORT WING        1930   78     190/ 12/ 18 1015.2
SAXON HARBOR     2140   76     200/  5/  9 1014.9S
$$

LMZ867-665-643>646-252300-
LAKE MICHIGAN

STATION/POSITION TIME  TEMP    WIND        PRES    WAVE
                       AIR SEA DIR/SP/G            HT/PER
                 (UTC) (F)     (DEG/KT/KT) (MB)    (FT/S)
CHAMBERS ISLAND  2140   74     150/  8/ 17 1018.6F
S GREEN BAY BUOY 2200   74 73  170/ 16/ 19 1018.7
N MID LAKE BUOY  2150   68 67  170/ 14/ 16 1020.4F   2/ 4
NORTHPORT PIER   2140   69     160/ 10/ 16 1019.6F
KEWAUNEE LAKESHO 2154   69     170/ 17/ 20 1019.4F
SHEBOYGAN LAKESH 2200   69     170/ 15/ 17 1020.0F
PORT WASHINGTON  2130   72     170/ 13/ 18 1021.3S
ATWATER BUOY     2109   70 68  150/ 17/ 19 1020.5F
MILWAUKEE LAKESH 2200   70     170/ 13/ 15   N/A
S MID LAKE BUOY  2150   71 71  130/ 10/ 12 1021.4F   1/ 4
KENOSHA   LAKESH 2200   72     150/ 15/ 19 1020.0
$$

TC  - TEMPERATURE IN CELSIUS
VSB - VISIBILITY IN STATUTE MILES
WCI - WIND CHILL INDEX
HX  - HEAT INDEX





USA.gov is the U.S. government's official web portal to all federal, state and local government web resources and services.